Content
SEND FEEDBACK

Daily
Averages
Monthly
Summary
United States of America

TILLMANS CORNER, ALABAMA


Home > North America > United States > Alabama
Elevation: 220 feet     Latitude: 30 40N     Longitude: 088 15W

WEATHER
 
SELECT A DAY
Number of Records: 212,285;   Date Range: 1/1/95 - 8/12/14
 
SHARE

PRINT THIS DATA

[ ← Previous Day ]
WEATHER ALMANAC - FEBRUARY 13, 2013
[ Next Day → ]
[ °C ]   °F
Weather ElementAverageHighLow
Temperature54.4 °F68 °F (12:33 am)41 °F (11:56 pm)
Dewpoint50.7 °F64.9 °F (12:56 am)37.9 °F (10:56 pm)
Humidity87.4 %94 % (2:04 am)75 % (9:56 am)
Barometer29.92 in30.08 in (11:56 pm)29.79 in (12:33 am)
Wind Speed7.1 mph13.8 mph (8:56 am)
Wind Gust20.7 mph (2:26 am)
Weather ElementAverage
Visibility8.2 mi
Wind DirectionWNW (276.9 °)

Weather ElementTotal
Precipitation0.22 in
Heating Degree Days10.5 (Base 65)
Growing Degree Days4.5 (Base 50)
Averaged from 36 records on February 13, 2013
WEATHER CONDITIONS BREAKOUT
WIND DIRECTION BREAKOUT
WEATHER BY HOUR - FEBRUARY 13, 2013
[ °C ]   °F
Local TimeTemperatureDewpointHumidityBarometerVisibilityWind DirectionWind SpeedGust SpeedPrecipitationEventsConditions
12:33 AM68.0 °F64.4 °F88 %29.79 in7.0 miWSW (240°)6.9 mphScattered Clouds
12:42 AM68.0 °F64.4 °F88 %29.80 in6.0 miWSW (240°)5.8 mphMostly Cloudy
12:56 AM68.0 °F64.9 °F90 %29.79 in7.0 miWSW (240°)9.2 mphOvercast
1:08 AM68.0 °F64.4 °F88 %29.80 in7.0 miWSW (250°)8.1 mph17.3 mphOvercast
1:31 AM68.0 °F64.4 °F88 %29.80 in9.0 miWest (280°)9.2 mphOvercast
1:46 AM66.2 °F62.6 °F88 %29.81 in10.0 miWNW (290°)10.4 mph19.6 mphOvercast
1:56 AM64.9 °F62.1 °F90 %29.81 in10.0 miWNW (290°)6.9 mph18.4 mphOvercast
2:04 AM64.4 °F62.6 °F94 %29.82 in10.0 miWNW (300°)10.4 mph16.1 mphOvercast
2:26 AM62.6 °F59.0 °F88 %29.83 in10.0 miWest (280°)12.7 mph20.7 mphMostly Cloudy
2:56 AM61.0 °F55.9 °F83 %29.84 in10.0 miWNW (290°)10.4 mph18.4 mphScattered Clouds
3:37 AM57.2 °F55.4 °F94 %29.85 in10.0 miWest (270°)4.6 mphMostly Cloudy
3:46 AM57.2 °F55.4 °F94 %29.86 in10.0 miWest (270°)5.8 mphScattered Clouds
3:56 AM57.0 °F55.0 °F93 %29.85 in10.0 miWest (270°)4.6 mphPartly Cloudy
4:56 AM55.9 °F52.0 °F87 %29.88 in10.0 miWest (270°)5.8 mphClear
5:56 AM54.0 °F52.0 °F93 %29.88 in7.0 miWest (270°)6.9 mphScattered Clouds
6:27 AM53.6 °F50.0 °F88 %29.89 in7.0 miWest (270°)8.1 mphMostly Cloudy
6:56 AM53.1 °F50.0 °F89 %29.93 in7.0 miWest (280°)9.2 mphMostly Cloudy
7:56 AM53.1 °F46.0 °F77 %29.93 in7.0 miNW (310°)11.5 mph18.4 mphOvercast
8:56 AM53.1 °F46.0 °F77 %29.95 in10.0 miWNW (300°)13.8 mph19.6 mphMostly Cloudy
9:56 AM54.0 °F46.0 °F75 %29.96 in10.0 miWNW (300°)9.2 mph17.3 mphOvercast
10:56 AM52.0 °F45.0 °F77 %29.96 in7.0 miNW (320°)11.5 mph0.00 inRainRain
11:31 AM51.8 °F46.4 °F82 %29.98 in7.0 miCalm0.01 inRainLight Rain
11:56 AM50.0 °F46.0 °F86 %29.97 in3.0 miNW (320°)9.2 mph0.02 inRainRain
12:56 PM48.0 °F45.0 °F89 %29.97 in3.0 miVariable4.6 mph0.08 inRainRain
1:06 PM46.4 °F44.6 °F93 %29.97 in3.0 miNW (310°)6.9 mph0.01 inRainLight Rain
1:56 PM46.0 °F43.0 °F89 %29.97 in3.0 miWNW (300°)8.1 mph0.07 inRainRain
2:56 PM46.9 °F44.1 °F90 %29.97 in5.0 miNW (320°)5.8 mph0.03 inOvercast
3:56 PM46.9 °F44.1 °F90 %29.98 in10.0 miNW (310°)5.8 mph0.00 inMostly Cloudy
4:56 PM48.0 °F45.0 °F89 %29.98 in10.0 miNW (310°)3.5 mphOvercast
5:56 PM46.9 °F45.0 °F93 %30.00 in10.0 miNW (320°)3.5 mphClear
6:56 PM46.9 °F44.1 °F90 %30.01 in10.0 miNW (320°)4.6 mphScattered Clouds
7:56 PM46.9 °F43.0 °F86 %30.03 in10.0 miWNW (300°)3.5 mphScattered Clouds
8:56 PM46.0 °F41.0 °F83 %30.06 in10.0 miNW (320°)5.8 mphPartly Cloudy
9:56 PM45.0 °F39.9 °F82 %30.07 in10.0 miNW (320°)4.6 mphPartly Cloudy
10:56 PM42.1 °F37.9 °F85 %30.07 in10.0 miNNW (340°)3.5 mphPartly Cloudy
11:56 PM41.0 °F37.9 °F89 %30.08 in10.0 miNorth (350°)3.5 mphClear
Hourly data recorded from KMOB, located miles away from Tillmans Corner, Alabama







STORIES FROM OUR PARTNERS